SCP
0 0 0 0 0 0 0 0 0 0 0 0 0 0 0 0 0 0 0 0 0 0 0 0 0 0 0 0 0 0 0 0 0 0 0 0 0 0 0 0 0 0 0 0 0 0 0
0 0 0 0 0 0 0 0 0 0 0 0 0 0 0 0 0 0 0 0 0 0 0 0 0 0 0 0 0 0 0 0 0 0 0 0 0 0 0 0 0 0 0 0 0 0 0
-0 -0 0 0 0 0 0 0 0 0 0 0 0 0 0 0 0 0 0 0 0 0 0 0 0 0 0 0 0 0 0 0 0 0 0 0 0 0 0 0 0 0 0 0 0 0 0
-0 -0 -0 0 0 0 0 0 0 0 0 0 0 0 0 0 0 0 0 0 0 0 0 0 0 0 0 0 0 0 0 0 0 0 0 0 0 0 0 0 0 0 0 0 0 0 0
0 0 0 -0 -0 0 0 0 0 0 0 0 0 0 0 0 0 0 0 0 0 0 0 0 0 0 0 0 0 0 0 0 0 0 0 0 0 0 0 0 0 0 0 0 0 0 0
0 0 0 0 0 0 0 0 0 0 0 0 0 0 0 0 0 0 0 0 0 0 0 0 0 0 0 0 0 0 0 0 0 0 0 0 0 0 0 0 0 0 0 0 0 -0 0
0 0 0 0 0 0 0 0 0 0 0 0 0 0 0 0 0 0 0 -0 0 0 0 0 0 0 0 0 0 0 0 0 0 0 0 0 0 0 0 0 0 0 0 -0 -0 0 0
0 0 0 0 0 0 0 0 0 0 0 0 0 0 0 0 0 0 0 0 -0 0 0 0 0 0 0 0 0 0 0 0 0 0 0 0 0 0 0 0 0 0 0 0 0 0 0
0 0 0 0 0 0 0 0 0 0 0 0 0 0 0 0 0 0 0 0 0 0 -0 0 0 0 0 0 0 0 0 0 0 0 0 0 0 0 0 0 0 0 0 0 0 0 0
0 0 0 0 0 0 0 0 0 0 0 0 0 0 0 0 0 0 0 0 0 -0 0 0 0 0 0 0 0 0 0 0 0 0 0 0 0 0 0 0 0 0 0 0 0 0 0
0 0 0 0 0 0 0 0 0 0 0 0 0 0 0 0 0 0 0 0 0 0 -0 0 0 0 0 0 0 0 0 0 0 0 0 0 0 0 0 0 0 0 0 0 0 0 0
0 0 0 0 0 0 0 0 0 0 0 0 0 0 0 0 0 0 0 0 0 0 0 0 0 0 0 0 0 0 0 0 0 0 0 0 0 0 0 0 0 0 0 0 0 0 0
0 0 0 0 0 0 0 0 0 0 0 0 0 0 0 0 0 0 0 0 0 0 0 0 0 0 0 0 0 0 0 0 0 0 0 0 0 0 0 0 0 0 0 0 0 0 0
0 0 0 0 0 0 0 0 0 0 0 0 0 0 0 0 0 0 0 0 0 0 0 0 0 0 0 0 0 0 0 0 0 0 0 0 0 0 0 0 0 0 0 0 0 0 0
0 0 0 0 0 0 0 0 0 0 0 0 0 0 0 0 0 0 0 0 0 0 0 0 0 0 0 0 0 0 0 0 0 0 0 0 0 0 0 0 0 0 0 0 0 0 0
0 0 0 0 0 0 0 0 0 0 0 0 0 0 0 0 0 0 0 0 0 0 0 0 0 0 0 0 0 0 0 0 0 0 0 0 0 0 0 0 0 0 0 0 0 0 0
-0 -0 0 0 0 0 0 0 0 0 0 0 0 0 -0 0 0 0 0 0 0 0 0 0 0 0 0 0 0 0 0 0 0 0 0 0 0 0 0 0 0 0 0 0 0 0 0
-0 -0 -0 0 0 0 0 0 0 0 0 -0 0 0 0 0 0 0 0 0 0 0 0 0 0 0 0 0 0 0 0 0 0 0 0 0 0 0 0 0 0 0 0 0 0 0 0
-0 -0 -0 -0 0 0 0 0 0 0 0 -0 0 0 0 0 0 0 0 0 0 0 0 0 0 0 0 0 0 0 0 0 0 0 0 0 0 0 0 0 0 0 0 0 0 0 0
0 -0 -0 -0 -0 -0 0 0 0 0 0 -0 -0 0 0 0 0 0 0 0 0 0 0 0 0 0 0 0 0 0 0 0 0 0 0 0 0 0 0 0 0 0 0 0 0 0 0
0 0 0 0 0 0 0 0 0 0 0 -0 -0 -0 0 0 0 0 0 0 0 0 0 0 0 0 0 0 0 0 0 0 0 0 0 0 0 0 0 0 0 0 0 0 0 0 0
0 0 0 0 0 0 0 0 0 0 0 0 -0 -0 0 0 0 0 -0 0 0 0 0 0 0 0 0 0 0 0 0 0 0 0 0 0 0 0 0 0 0 0 0 0 0 0 0
0 0 0 0 0 0 0 0 0 0 0 0 0 0 0 -0 0 0 0 0 -0 0 -0 -0 0 0 0 0 -0 0 0 0 0 0 0 0 0 0 0 0 0 0 0 0 0 0 0
0 0 0 0 0 0 0 0 -0 -0 0 0 0 0 -0 -0 0 0 0 0 -0 0 0 -0 -0 -0 0 0 0 0 0 0 0 0 0 0 0 0 0 0 0 0 0 0 0 0 0
0 0 0 0 0 0 0 0 -0 -0 0 0 0 0 0 0 0 0 -0 0 0 0 0 0 0 0 0 -0 0 0 0 0 0 0 0 0 0 0 0 0 0 0 0 0 0 0 0
0 0 0 0 0 0 0 0 -0 -0 -0 -0 0 0 0 0 0 0 0 0 0 0 -0 -0 -0 -0 0 -0 -0 0 0 0 0 0 0 0 0 0 0 0 0 0 0 0 0 0 0
0 0 0 0 0 0 0 0 -0 -0 -0 -0 0 0 0 0 0 0 0 0 0 0 0 -0 -0 0 -0 0 0 0 -0 -0 0 0 0 0 0 0 0 0 0 0 0 0 0 0 0
0 0 0 0 0 0 0 0 0 -0 -0 -0 0 0 0 0 0 0 0 0 0 0 0 0 0 0 0 0 0 0 0 0 0 0 0 0 0 0 0 0 0 0 0 0 0 0 0
0 0 0 0 0 0 -0 -0 -0 -0 -0 -0 0 0 0 0 0 0 0 0 0 0 0 0 0 0 0 0 0 0 0 0 0 0 0 0 0 0 0 0 0 0 0 0 0 0 0
Wind_Speed_500mb
29 27 25 24 25 25 26 26 26 26 25 26 28 30 32 34 36 37 36 34 33 32 32 31 26 24 23 16 22 22 19 17 15 17 17 19 17 8 14 9 6 9 7 9 16 17 20
38 35 32 32 30 29 28 26 26 26 27 28 29 30 32 37 42 37 34 34 34 32 33 31 28 24 22 12 21 21 19 18 15 21 24 26 9 11 10 10 18 13 10 17 18 24 16
39 38 36 35 34 32 30 30 28 27 27 27 28 29 33 36 44 38 37 35 34 32 31 29 28 26 28 38 26 21 18 16 19 25 27 28 25 13 4 4 8 7 7 10 18 15 10
33 35 35 35 34 33 33 32 31 31 30 30 32 33 34 37 41 33 40 38 35 31 28 27 24 23 20 24 24 24 23 19 17 24 27 23 25 15 10 5 2 7 1 4 2 16 7
29 31 36 37 37 38 38 36 35 36 37 37 37 38 42 44 44 38 39 44 33 25 20 19 18 16 18 17 20 25 22 17 14 14 18 18 18 11 5 3 4 3 10 10 9 16 8
30 31 35 37 38 38 38 41 43 42 42 42 44 42 43 46 46 43 43 44 23 16 11 12 17 10 23 13 14 16 21 20 11 12 11 11 9 5 2 8 12 12 11 11 10 11 8
31 31 30 33 36 38 39 43 47 48 50 50 46 45 46 43 44 42 42 33 15 7 9 20 16 20 12 16 13 14 20 21 13 10 10 7 5 19 28 18 4 5 6 7 5 6 6
40 39 38 38 39 40 40 39 41 43 46 51 51 48 48 43 40 34 33 18 19 22 27 41 51 53 43 20 9 22 23 20 14 13 9 4 17 16 5 11 12 9 8 12 8 3 5
42 45 48 50 52 55 56 54 50 49 48 46 44 44 41 40 38 26 32 24 33 28 12 20 22 20 27 33 18 24 33 19 10 12 16 15 7 7 10 7 10 8 11 7 10 5 9
37 37 40 42 42 44 47 50 53 58 63 61 56 53 49 43 28 21 28 28 35 25 7 12 9 9 14 13 9 19 34 17 8 21 13 14 5 10 8 10 14 9 8 4 4 2 9
41 43 44 46 47 48 46 47 46 45 48 52 60 65 60 39 41 40 28 29 29 9 9 7 7 13 15 12 9 9 21 12 12 12 12 13 13 9 8 10 14 10 5 6 3 3 8
46 48 50 51 51 47 54 55 51 54 51 50 49 49 50 47 32 42 32 22 20 4 18 8 12 13 9 10 6 11 8 6 4 9 1 6 2 6 8 6 5 10 10 13 9 5 5
48 47 50 50 51 53 53 55 54 58 56 56 55 54 48 38 34 24 25 11 6 12 7 9 11 11 9 13 11 12 12 13 13 9 10 1 8 4 7 8 7 5 11 2 5 2 14
52 55 54 56 57 59 56 59 57 56 56 57 58 62 64 54 38 47 39 2 22 14 17 2 6 5 11 13 9 15 12 8 15 4 7 14 10 18 12 11 13 13 12 10 15 9 7
55 57 57 57 57 57 58 58 59 57 56 61 64 70 77 47 28 49 32 24 22 21 16 19 6 8 8 7 10 9 17 12 18 29 21 11 10 5 3 2 6 12 12 5 9 3 6
59 61 59 60 64 65 61 58 62 60 60 54 61 66 65 19 30 42 24 56 21 21 3 9 22 18 16 10 15 17 18 11 12 29 3 14 3 1 4 3 4 9 2 5 4 4 9
57 59 59 56 61 64 63 60 58 61 64 44 52 27 20 25 28 38 31 35 31 58 20 25 32 17 15 15 13 9 11 9 13 11 6 8 8 0 4 16 23 9 7 4 5 8 9
59 58 58 57 57 57 59 60 61 62 63 71 37 5 10 31 15 14 30 15 20 18 35 46 5 26 33 22 13 29 25 16 20 14 16 10 9 10 18 2 2 4 12 14 9 12 9
53 55 55 54 56 55 55 56 55 53 52 58 22 26 34 34 10 17 15 19 11 30 17 10 16 24 25 28 16 17 12 8 28 21 19 11 7 2 11 8 8 9 13 9 7 5 17
51 53 52 52 51 53 55 55 56 51 48 49 19 8 9 20 38 28 34 20 29 23 15 17 15 14 9 19 30 12 13 5 10 12 32 21 6 11 19 11 9 9 11 25 12 7 18
55 52 53 52 49 51 54 52 51 51 50 47 15 7 13 6 9 13 18 18 40 29 10 15 11 32 39 16 30 32 30 7 4 16 1 16 19 29 45 16 10 10 9 19 34 49 17
54 45 50 50 50 53 56 56 55 51 47 46 15 10 22 8 15 16 8 9 30 26 11 23 15 29 30 12 23 26 10 12 29 9 13 6 13 6 29 35 16 24 21 21 41 40 37
57 56 58 56 55 55 55 57 63 60 41 39 32 34 22 20 6 5 8 18 25 34 17 12 22 27 20 26 19 23 34 32 21 6 22 21 15 13 11 13 19 10 46 36 25 21 31
54 52 52 56 56 57 58 59 64 67 47 45 50 41 10 13 6 9 17 22 21 24 16 29 33 17 19 42 40 29 45 39 30 29 18 6 6 10 15 8 25 18 16 39 48 50 38
52 51 53 53 55 58 62 64 64 65 59 56 53 42 17 11 14 16 24 12 16 21 27 34 51 34 43 25 9 10 8 6 18 31 32 30 16 9 12 26 27 12 7 10 15 11 23
55 54 56 56 58 58 61 66 64 65 63 58 64 58 35 10 26 40 15 22 8 6 6 12 29 39 26 1 6 10 6 7 12 17 8 29 32 24 14 10 21 8 10 30 7 14 21
52 54 59 60 58 61 59 63 65 67 66 64 62 49 42 34 57 36 11 12 20 9 4 9 8 12 9 1 12 5 8 6 9 6 8 3 10 29 28 26 13 18 28 15 10 6 15
56 56 59 61 61 63 65 64 66 67 67 69 68 57 37 36 60 40 46 36 21 17 9 7 8 7 6 4 3 4 3 8 0 15 17 14 9 11 17 23 30 23 8 6 5 8 10
57 57 60 62 62 67 67 68 66 67 67 68 76 75 67 60 45 44 63 64 57 45 32 20 18 9 5 1 4 2 8 3 4 7 9 10 2 3 5 5 7 19 27 21 11 6 3
Wind_Direction_500mb
36 34 32 34 30 25 19 14 12 9 6 0 356 352 347 342 333 324 317 311 306 301 295 296 289 283 285 274 258 269 273 277 267 226 200 196 229 219 164 189 224 221 261 261 254 256 264
37 36 33 34 36 32 29 26 22 15 11 7 3 359 354 350 342 332 320 310 305 300 297 294 285 277 268 248 263 265 269 268 253 218 207 206 235 269 273 215 167 193 222 260 254 249 241
34 31 28 29 28 25 21 19 17 13 8 4 360 356 353 351 350 342 331 318 306 297 293 287 279 272 262 263 262 262 267 262 240 224 221 220 229 252 300 285 279 190 253 282 224 223 239
18 10 8 10 9 7 5 2 360 357 354 350 346 346 346 346 349 338 339 329 312 295 283 276 267 264 259 259 253 249 251 244 240 227 222 223 225 244 243 197 18 289 123 265 198 149 203
353 352 347 349 350 347 344 341 342 342 339 337 337 337 338 340 344 342 337 334 315 288 267 255 252 240 262 260 245 237 230 225 220 216 208 204 191 210 188 154 343 190 275 219 301 199 139
335 331 327 327 326 327 326 328 327 328 329 329 331 330 331 332 335 337 341 341 324 305 273 254 233 267 243 246 233 226 217 208 190 175 162 178 189 167 226 157 222 204 220 251 232 206 198
338 334 330 325 321 321 322 319 317 317 317 319 322 322 325 328 326 330 338 342 337 295 282 244 261 229 241 232 237 217 203 194 179 179 182 209 149 213 205 199 178 147 222 262 277 203 211
316 316 317 316 315 314 313 312 310 309 310 310 309 311 315 321 322 322 334 8 346 303 298 277 257 245 249 225 236 218 194 180 175 195 129 49 237 237 244 207 229 230 250 260 259 146 205
310 307 305 302 300 299 298 297 298 298 301 302 304 306 308 318 323 309 335 337 335 328 264 281 240 235 234 229 227 212 193 187 178 169 195 178 222 146 167 180 188 228 207 219 236 312 227
342 346 342 336 331 323 314 306 301 294 290 289 288 292 299 304 309 301 319 323 332 332 33 260 217 224 188 170 241 203 193 186 186 205 174 230 226 176 173 212 166 247 206 162 170 121 248
354 349 344 340 336 334 333 334 332 329 324 306 291 287 282 285 290 293 298 305 324 337 321 216 185 165 168 187 144 195 188 181 180 183 126 236 174 176 184 208 167 227 118 141 109 183 355
347 342 339 336 335 334 331 330 326 325 325 324 320 315 295 277 263 277 281 276 305 60 245 245 153 173 148 199 199 133 167 191 135 132 127 253 329 200 200 79 36 132 70 43 47 68 296
340 336 334 330 328 325 324 323 323 323 321 321 318 316 310 294 259 257 245 260 297 218 338 254 204 167 193 188 196 171 168 177 170 105 221 192 215 188 156 95 22 97 101 327 341 347 231
337 334 328 324 321 317 319 316 316 316 317 318 314 311 299 286 269 237 246 233 222 224 240 304 143 121 196 159 229 177 150 217 236 136 120 165 283 169 180 200 177 184 174 170 206 205 252
338 334 328 326 319 317 314 311 307 307 311 315 312 312 306 295 266 214 218 228 222 209 189 157 134 161 279 246 177 150 196 214 208 180 180 141 261 145 125 136 146 193 206 198 103 67 35
344 335 326 328 326 326 316 313 307 307 306 306 310 312 311 293 219 209 231 230 225 219 154 155 193 180 202 218 179 177 180 207 229 193 163 201 99 238 134 143 231 178 224 111 359 186 246
351 348 342 333 326 325 326 320 319 319 305 310 302 309 303 297 203 206 215 228 236 243 242 239 236 205 206 169 201 211 210 256 213 171 134 139 126 166 84 205 182 156 204 201 138 168 183
354 353 350 345 344 337 334 333 326 323 322 313 269 245 284 311 252 231 230 217 270 271 234 242 283 224 223 213 213 218 217 230 164 148 160 217 150 172 205 261 357 243 189 165 142 224 230
348 346 342 342 342 342 340 338 335 332 328 317 281 252 275 277 270 283 274 264 272 272 292 280 243 245 256 244 240 199 214 253 173 153 172 191 203 89 341 353 354 207 208 206 116 90 216
350 347 344 340 335 333 332 330 329 328 332 327 320 287 242 219 245 263 291 275 264 272 288 267 284 311 287 246 235 242 229 247 170 183 176 125 198 204 219 192 135 197 211 197 162 159 221
338 339 340 337 336 336 334 333 331 326 324 323 306 280 262 276 273 271 278 293 289 284 320 309 289 233 255 257 260 245 239 165 128 179 101 164 209 206 230 188 174 197 190 203 206 227 196
347 345 341 351 344 338 334 330 325 322 321 312 309 346 313 272 295 310 329 303 278 318 343 277 271 327 296 288 262 275 315 225 231 173 176 198 231 162 252 231 215 242 253 212 224 243 252
348 358 355 354 351 344 339 336 333 325 312 299 284 289 300 298 314 301 278 295 276 313 282 288 335 329 320 318 359 318 281 273 281 259 179 171 170 168 236 195 235 219 231 230 226 210 223
344 344 345 346 348 344 342 339 337 337 317 287 284 281 246 284 237 239 285 277 286 297 316 312 329 320 289 302 305 289 259 241 242 240 194 189 187 188 234 125 234 238 177 213 215 231 220
335 335 336 335 337 339 340 340 338 339 335 324 298 263 249 264 230 252 252 262 287 289 283 288 294 296 320 284 291 338 320 286 240 238 207 213 219 248 225 234 246 302 212 152 164 214 17
326 328 327 330 333 332 331 333 335 336 334 323 317 300 235 237 248 245 230 192 197 209 277 248 292 306 327 2 235 202 239 315 313 322 271 209 220 231 247 251 248 245 333 350 287 217 18
322 327 324 327 326 328 329 330 331 331 331 327 313 311 267 238 257 237 210 219 229 197 197 281 270 316 320 203 273 261 238 201 216 276 315 190 221 232 235 248 251 336 316 297 186 48 20
329 328 327 328 327 327 326 325 325 326 327 326 312 312 283 271 247 234 237 229 200 209 150 238 351 286 360 157 223 284 204 249 198 258 253 263 291 232 232 227 240 346 18 38 45 92 28
333 330 328 329 330 328 325 322 322 322 324 324 316 315 290 243 241 234 249 240 246 253 250 228 220 197 273 65 219 101 332 305 204 275 353 257 309 4 45 324 55 41 102 100 80 111 57
Wind_Speed_850mb
29 27 25 24 25 25 26 26 26 26 25 26 28 30 32 34 36 37 36 34 33 32 32 31 26 24 23 16 22 22 19 17 15 17 17 19 17 8 14 9 6 9 7 9 16 17 20
38 35 32 32 30 29 28 26 26 26 27 28 29 30 32 37 42 37 34 34 34 32 33 31 28 24 22 12 21 21 19 18 15 21 24 26 9 11 10 10 18 13 10 17 18 24 16
39 38 36 35 34 32 30 30 28 27 27 27 28 29 33 36 44 38 37 35 34 32 31 29 28 26 28 38 26 21 18 16 19 25 27 28 25 13 4 4 8 7 7 10 18 15 10
33 35 35 35 34 33 33 32 31 31 30 30 32 33 34 37 41 33 40 38 35 31 28 27 24 23 20 24 24 24 23 19 17 24 27 23 25 15 10 5 2 7 1 4 2 16 7
29 31 36 37 37 38 38 36 35 36 37 37 37 38 42 44 44 38 39 44 33 25 20 19 18 16 18 17 20 25 22 17 14 14 18 18 18 11 5 3 4 3 10 10 9 16 8
30 31 35 37 38 38 38 41 43 42 42 42 44 42 43 46 46 43 43 44 23 16 11 12 17 10 23 13 14 16 21 20 11 12 11 11 9 5 2 8 12 12 11 11 10 11 8
31 31 30 33 36 38 39 43 47 48 50 50 46 45 46 43 44 42 42 33 15 7 9 20 16 20 12 16 13 14 20 21 13 10 10 7 5 19 28 18 4 5 6 7 5 6 6
40 39 38 38 39 40 40 39 41 43 46 51 51 48 48 43 40 34 33 18 19 22 27 41 51 53 43 20 9 22 23 20 14 13 9 4 17 16 5 11 12 9 8 12 8 3 5
42 45 48 50 52 55 56 54 50 49 48 46 44 44 41 40 38 26 32 24 33 28 12 20 22 20 27 33 18 24 33 19 10 12 16 15 7 7 10 7 10 8 11 7 10 5 9
37 37 40 42 42 44 47 50 53 58 63 61 56 53 49 43 28 21 28 28 35 25 7 12 9 9 14 13 9 19 34 17 8 21 13 14 5 10 8 10 14 9 8 4 4 2 9
41 43 44 46 47 48 46 47 46 45 48 52 60 65 60 39 41 40 28 29 29 9 9 7 7 13 15 12 9 9 21 12 12 12 12 13 13 9 8 10 14 10 5 6 3 3 8
46 48 50 51 51 47 54 55 51 54 51 50 49 49 50 47 32 42 32 22 20 4 18 8 12 13 9 10 6 11 8 6 4 9 1 6 2 6 8 6 5 10 10 13 9 5 5
48 47 50 50 51 53 53 55 54 58 56 56 55 54 48 38 34 24 25 11 6 12 7 9 11 11 9 13 11 12 12 13 13 9 10 1 8 4 7 8 7 5 11 2 5 2 14
52 55 54 56 57 59 56 59 57 56 56 57 58 62 64 54 38 47 39 2 22 14 17 2 6 5 11 13 9 15 12 8 15 4 7 14 10 18 12 11 13 13 12 10 15 9 7
55 57 57 57 57 57 58 58 59 57 56 61 64 70 77 47 28 49 32 24 22 21 16 19 6 8 8 7 10 9 17 12 18 29 21 11 10 5 3 2 6 12 12 5 9 3 6
59 61 59 60 64 65 61 58 62 60 60 54 61 66 65 19 30 42 24 56 21 21 3 9 22 18 16 10 15 17 18 11 12 29 3 14 3 1 4 3 4 9 2 5 4 4 9
57 59 59 56 61 64 63 60 58 61 64 44 52 27 20 25 28 38 31 35 31 58 20 25 32 17 15 15 13 9 11 9 13 11 6 8 8 0 4 16 23 9 7 4 5 8 9
59 58 58 57 57 57 59 60 61 62 63 71 37 5 10 31 15 14 30 15 20 18 35 46 5 26 33 22 13 29 25 16 20 14 16 10 9 10 18 2 2 4 12 14 9 12 9
53 55 55 54 56 55 55 56 55 53 52 58 22 26 34 34 10 17 15 19 11 30 17 10 16 24 25 28 16 17 12 8 28 21 19 11 7 2 11 8 8 9 13 9 7 5 17
51 53 52 52 51 53 55 55 56 51 48 49 19 8 9 20 38 28 34 20 29 23 15 17 15 14 9 19 30 12 13 5 10 12 32 21 6 11 19 11 9 9 11 25 12 7 18
55 52 53 52 49 51 54 52 51 51 50 47 15 7 13 6 9 13 18 18 40 29 10 15 11 32 39 16 30 32 30 7 4 16 1 16 19 29 45 16 10 10 9 19 34 49 17
54 45 50 50 50 53 56 56 55 51 47 46 15 10 22 8 15 16 8 9 30 26 11 23 15 29 30 12 23 26 10 12 29 9 13 6 13 6 29 35 16 24 21 21 41 40 37
57 56 58 56 55 55 55 57 63 60 41 39 32 34 22 20 6 5 8 18 25 34 17 12 22 27 20 26 19 23 34 32 21 6 22 21 15 13 11 13 19 10 46 36 25 21 31
54 52 52 56 56 57 58 59 64 67 47 45 50 41 10 13 6 9 17 22 21 24 16 29 33 17 19 42 40 29 45 39 30 29 18 6 6 10 15 8 25 18 16 39 48 50 38
52 51 53 53 55 58 62 64 64 65 59 56 53 42 17 11 14 16 24 12 16 21 27 34 51 34 43 25 9 10 8 6 18 31 32 30 16 9 12 26 27 12 7 10 15 11 23
55 54 56 56 58 58 61 66 64 65 63 58 64 58 35 10 26 40 15 22 8 6 6 12 29 39 26 1 6 10 6 7 12 17 8 29 32 24 14 10 21 8 10 30 7 14 21
52 54 59 60 58 61 59 63 65 67 66 64 62 49 42 34 57 36 11 12 20 9 4 9 8 12 9 1 12 5 8 6 9 6 8 3 10 29 28 26 13 18 28 15 10 6 15
56 56 59 61 61 63 65 64 66 67 67 69 68 57 37 36 60 40 46 36 21 17 9 7 8 7 6 4 3 4 3 8 0 15 17 14 9 11 17 23 30 23 8 6 5 8 10
57 57 60 62 62 67 67 68 66 67 67 68 76 75 67 60 45 44 63 64 57 45 32 20 18 9 5 1 4 2 8 3 4 7 9 10 2 3 5 5 7 19 27 21 11 6 3
Wind_Direction_850mb
36 34 32 34 30 25 19 14 12 9 6 0 356 352 347 342 333 324 317 311 306 301 295 296 289 283 285 274 258 269 273 277 267 226 200 196 229 219 164 189 224 221 261 261 254 256 264
37 36 33 34 36 32 29 26 22 15 11 7 3 359 354 350 342 332 320 310 305 300 297 294 285 277 268 248 263 265 269 268 253 218 207 206 235 269 273 215 167 193 222 260 254 249 241
34 31 28 29 28 25 21 19 17 13 8 4 360 356 353 351 350 342 331 318 306 297 293 287 279 272 262 263 262 262 267 262 240 224 221 220 229 252 300 285 279 190 253 282 224 223 239
18 10 8 10 9 7 5 2 360 357 354 350 346 346 346 346 349 338 339 329 312 295 283 276 267 264 259 259 253 249 251 244 240 227 222 223 225 244 243 197 18 289 123 265 198 149 203
353 352 347 349 350 347 344 341 342 342 339 337 337 337 338 340 344 342 337 334 315 288 267 255 252 240 262 260 245 237 230 225 220 216 208 204 191 210 188 154 343 190 275 219 301 199 139
335 331 327 327 326 327 326 328 327 328 329 329 331 330 331 332 335 337 341 341 324 305 273 254 233 267 243 246 233 226 217 208 190 175 162 178 189 167 226 157 222 204 220 251 232 206 198
338 334 330 325 321 321 322 319 317 317 317 319 322 322 325 328 326 330 338 342 337 295 282 244 261 229 241 232 237 217 203 194 179 179 182 209 149 213 205 199 178 147 222 262 277 203 211
316 316 317 316 315 314 313 312 310 309 310 310 309 311 315 321 322 322 334 8 346 303 298 277 257 245 249 225 236 218 194 180 175 195 129 49 237 237 244 207 229 230 250 260 259 146 205
310 307 305 302 300 299 298 297 298 298 301 302 304 306 308 318 323 309 335 337 335 328 264 281 240 235 234 229 227 212 193 187 178 169 195 178 222 146 167 180 188 228 207 219 236 312 227
342 346 342 336 331 323 314 306 301 294 290 289 288 292 299 304 309 301 319 323 332 332 33 260 217 224 188 170 241 203 193 186 186 205 174 230 226 176 173 212 166 247 206 162 170 121 248
354 349 344 340 336 334 333 334 332 329 324 306 291 287 282 285 290 293 298 305 324 337 321 216 185 165 168 187 144 195 188 181 180 183 126 236 174 176 184 208 167 227 118 141 109 183 355
347 342 339 336 335 334 331 330 326 325 325 324 320 315 295 277 263 277 281 276 305 60 245 245 153 173 148 199 199 133 167 191 135 132 127 253 329 200 200 79 36 132 70 43 47 68 296
340 336 334 330 328 325 324 323 323 323 321 321 318 316 310 294 259 257 245 260 297 218 338 254 204 167 193 188 196 171 168 177 170 105 221 192 215 188 156 95 22 97 101 327 341 347 231
337 334 328 324 321 317 319 316 316 316 317 318 314 311 299 286 269 237 246 233 222 224 240 304 143 121 196 159 229 177 150 217 236 136 120 165 283 169 180 200 177 184 174 170 206 205 252
338 334 328 326 319 317 314 311 307 307 311 315 312 312 306 295 266 214 218 228 222 209 189 157 134 161 279 246 177 150 196 214 208 180 180 141 261 145 125 136 146 193 206 198 103 67 35
344 335 326 328 326 326 316 313 307 307 306 306 310 312 311 293 219 209 231 230 225 219 154 155 193 180 202 218 179 177 180 207 229 193 163 201 99 238 134 143 231 178 224 111 359 186 246
351 348 342 333 326 325 326 320 319 319 305 310 302 309 303 297 203 206 215 228 236 243 242 239 236 205 206 169 201 211 210 256 213 171 134 139 126 166 84 205 182 156 204 201 138 168 183
354 353 350 345 344 337 334 333 326 323 322 313 269 245 284 311 252 231 230 217 270 271 234 242 283 224 223 213 213 218 217 230 164 148 160 217 150 172 205 261 357 243 189 165 142 224 230
348 346 342 342 342 342 340 338 335 332 328 317 281 252 275 277 270 283 274 264 272 272 292 280 243 245 256 244 240 199 214 253 173 153 172 191 203 89 341 353 354 207 208 206 116 90 216
350 347 344 340 335 333 332 330 329 328 332 327 320 287 242 219 245 263 291 275 264 272 288 267 284 311 287 246 235 242 229 247 170 183 176 125 198 204 219 192 135 197 211 197 162 159 221
338 339 340 337 336 336 334 333 331 326 324 323 306 280 262 276 273 271 278 293 289 284 320 309 289 233 255 257 260 245 239 165 128 179 101 164 209 206 230 188 174 197 190 203 206 227 196
347 345 341 351 344 338 334 330 325 322 321 312 309 346 313 272 295 310 329 303 278 318 343 277 271 327 296 288 262 275 315 225 231 173 176 198 231 162 252 231 215 242 253 212 224 243 252
348 358 355 354 351 344 339 336 333 325 312 299 284 289 300 298 314 301 278 295 276 313 282 288 335 329 320 318 359 318 281 273 281 259 179 171 170 168 236 195 235 219 231 230 226 210 223
344 344 345 346 348 344 342 339 337 337 317 287 284 281 246 284 237 239 285 277 286 297 316 312 329 320 289 302 305 289 259 241 242 240 194 189 187 188 234 125 234 238 177 213 215 231 220
335 335 336 335 337 339 340 340 338 339 335 324 298 263 249 264 230 252 252 262 287 289 283 288 294 296 320 284 291 338 320 286 240 238 207 213 219 248 225 234 246 302 212 152 164 214 17
326 328 327 330 333 332 331 333 335 336 334 323 317 300 235 237 248 245 230 192 197 209 277 248 292 306 327 2 235 202 239 315 313 322 271 209 220 231 247 251 248 245 333 350 287 217 18
322 327 324 327 326 328 329 330 331 331 331 327 313 311 267 238 257 237 210 219 229 197 197 281 270 316 320 203 273 261 238 201 216 276 315 190 221 232 235 248 251 336 316 297 186 48 20
329 328 327 328 327 327 326 325 325 326 327 326 312 312 283 271 247 234 237 229 200 209 150 238 351 286 360 157 223 284 204 249 198 258 253 263 291 232 232 227 240 346 18 38 45 92 28
333 330 328 329 330 328 325 322 322 322 324 324 316 315 290 243 241 234 249 240 246 253 250 228 220 197 273 65 219 101 332 305 204 275 353 257 309 4 45 324 55 41 102 100 80 111 57